Regional Weather Roundup
Issued by NWS

Home | Current Version | Previous Version | Graphics & Text | Print | Product List | Glossary On
Versions: 1 2 3 4 5 6 7 8 9 10 11 12 13 14 15 16 17 18 19 20 21 22 23 24 25 26 27 28 29 30 31 32 33 34 35 36 37 38 39 40 41 42 43 44 45 46 47 48 49 50
741
ASUS45 KSLC 290210
RWRUT

UTAH REGIONAL WEATHER ROUNDUP
NATIONAL WEATHER SERVICE SALT LAKE CITY UT
800 PM MDT WED JUN 28 2017

UTZ001>011-023>025-290300-

NORTHERN UTAH

CITY           SKY/WX    TMP DP  RH WIND       PRES   REMARKS
BRIGHAM CITY   PTSUNNY   78  40  25 NE3       29.86R
HILL AFB       CLEAR     80  40  24 N14       29.87R
LOGAN          PTSUNNY   75  51  43 NW7       29.88R
OGDEN          MOSUNNY   81  40  23 N14       29.84R
SALT LAKE CITY PTCLDY    87  40  19 N15       29.81R
TOOELE VALLEY  SUNNY     81  46  30 NE12      29.84R
WENDOVER       SUNNY     86  26  11 NW23G29   29.85R
HEBER CITY     CLEAR     79  32  18 N5        29.89S
WEST JORDAN    CLEAR     82  49  31 N9        29.85R

$$

UTZ011>015-024>027-290300-

CENTRAL/NORTHEAST UTAH

CITY           SKY/WX    TMP DP  RH WIND       PRES   REMARKS
PROVO AIRPORT  PTCLDY    84  33  16 N10       29.83R
MOAB/CANYONLAN PTCLDY    95   8   4 W12       29.70F
DELTA          CLEAR     86  19   8 N20G30    29.83R
PRICE          PTCLDY    83  19   9 W10       29.89R
ROOSEVELT      CLEAR     84  27  12 W14G23    29.84S
VERNAL         CLEAR     85  25  11 W14       29.82R

$$

UTZ013>016-019>022-027-290300-

SOUTHERN UTAH

CITY           SKY/WX    TMP DP  RH WIND       PRES   REMARKS
BRYCE CANYON   CLOUDY    75  12   9 SW15      30.11R
CEDAR CITY     CLEAR     85  13   7 SW18      29.93R
MILFORD        CLEAR     92   9   4 W16G23    29.84R
ST GEORGE      CLEAR     99  19   5 SW14      29.73R HX  92
HANKSVILLE     CLEAR     95  14   5 W20       29.76R
BLANDING       CLEAR     86   8   5 W18G28    29.98S

$$

REGIONAL REPORTS     COLORADO/ARIZONA

CITY           SKY/WX    TMP DP  RH WIND       PRES   REMARKS
CRAIG, CO      CLOUDY    78  22  12 VRB6      29.90R
GRAND JUNCTION CLOUDY    88  16   7 W7        29.77R
RIFLE, CO      CLEAR     85  13   7 W8        29.82R
MONTROSE, CO   CLEAR     87   8   5 SW13      29.88R
CORTEZ, CO     CLEAR     84  13   7 SW8       29.94R
COLORADO CITY    N/A     91  21   8 W12G20    29.94R
PAGE, AZ       CLEAR     95   4   3 W14G31    29.81R
GRAND CANYON   CLEAR     81   6   5 W14G25    30.09R
KINGMAN, AZ    CLEAR     93  19   7 S15       29.85S
FLAGSTAFF, AZ  CLEAR     77  12   8 W15G29    30.14R

$$

REGIONAL REPORTS    NEVADA/IDAHO/WYOMING

CITY           SKY/WX    TMP DP  RH WIND       PRES   REMARKS
LAS VEGAS, NV  SUNNY    103  10   3 SW13G25   29.68R HX  95
ELY, NY        SUNNY     81  27  14 NW14      30.00R
ELKO, NV       MOSUNNY   81  24  12 W16       29.96R
POCATELLO, ID  MOSUNNY   73  48  41 SW15      29.87S
BURLEY, ID     SUNNY     75  37  25 W10G20    29.86R
FORT BRIDGER,    N/A     70  34  26 N13G21    30.05R
EVANSTON, WY   CLEAR     68  32  26 NW12      30.03R
ROCK SPRINGS,  CLOUDY    66  33  29 N16G22    30.02R
KEMMERER, WY     N/A     63  32  31 NW12G18   30.05R

$$




USA.gov is the U.S. government's official web portal to all federal, state and local government web resources and services.